Home   Weather   Road Town   Past weeks

Flag for British Virgin Islands Past Weather in Road Town, Tortola, British Virgin Islands — Yesterday and Last 2 Weeks

Now
67 °F

Clear.


Feels Like: 67 °F
Forecast: 67 / 77 °F
Wind: No wind

Location: Cyril E. King International Airport

Current Time: Jan 20, 2017 at 6:03:43 am

Latest Report: Jan 20, 2017 at 4:53 am


Visibility: 10 mi

Pressure: 29.95 "Hg

Humidity: 87%

Dew Point: 63 °F

Location of Road TownLocation

Past Weather in Road Town — Graph

°F

Road Town Temperature Yesterday

Maximum temperature yesterday: 81 °F (at 3:53 pm)
Minimum temperature yesterday: 68 °F (at 2:53 am)
Average temperature yesterday: 74 °F

High & Low Weather Summary for the Past Weeks

 TemperatureHumidityPressure
High84 °F (Jan 6, 11:53 am)96% (Jan 17, 12:41 am)30.13 "Hg (Jan 17, 12:41 am)
Low66 °F (Jan 20, 3:53 am)45% (Jan 12, 11:53 am)29.93 "Hg (Jan 10, 3:53 pm)
Average77 °F71%30.03 "Hg
* Reported Jan 5 4:53 am — Jan 20 4:53 am, Road Town, Weather by CustomWeather, © 2017

Note: Actual official high and low records may vary slightly from our data, if they occured in-between our weather recording intervals... More about our weather records

Advertising

Road Town Weather History for the Previous 24 Hours

Scroll right to see more
 ConditionsComfort  
Time TempWeatherWind HumidityBarometerVisibility
4:53 am
Fri, Jan 20
67 °FClear.No wind87%29.95 "Hg10 mi
3:53 am66 °FPassing clouds.No wind90%29.95 "Hg10 mi
2:53 am67 °FClear.No wind90%29.95 "Hg10 mi
1:53 am69 °FClear.No wind84%29.97 "Hg10 mi
12:53 am69 °FPassing clouds.No wind84%29.98 "Hg10 mi
11:53 pm
Thu, Jan 19
70 °FClear.No wind84%30.00 "Hg10 mi
10:53 pm73 °FClear.No wind76%30.00 "Hg10 mi
9:53 pm73 °FClear.7 mph76%30.00 "Hg10 mi
8:53 pm71 °FClear.5 mph81%29.99 "Hg10 mi
7:53 pm73 °FClear.5 mph76%29.97 "Hg10 mi
6:53 pm74 °FClear.5 mph74%29.95 "Hg10 mi
5:53 pm77 °FPassing clouds.8 mph66%29.94 "Hg10 mi
4:53 pm79 °FPassing clouds.7 mph65%29.93 "Hg10 mi
3:53 pm81 °FPassing clouds.8 mph60%29.93 "Hg10 mi
2:53 pm80 °FSunny.6 mph58%29.93 "Hg10 mi
1:53 pm80 °FSunny.8 mph60%29.94 "Hg10 mi
12:53 pm80 °FSunny.9 mph60%29.96 "Hg10 mi
11:53 am80 °FSunny.9 mph60%30.00 "Hg10 mi
10:53 am79 °FSunny.8 mph62%30.03 "Hg10 mi
9:53 am78 °FSunny.7 mph60%30.03 "Hg10 mi
8:53 am76 °FSunny.7 mph67%30.03 "Hg10 mi
7:53 am71 °FSunny.3 mph76%30.01 "Hg10 mi
6:53 am68 °FClear.5 mph76%30.00 "Hg10 mi
Weather by CustomWeather, © 2017

See weather overviewHow to use our weather pages